Date String (YYYY-MM-DD hh:mm:ss) UTC,Instrument flags,Ambient pressure (hPa),Sample flow (lpm),Bypass flow (lpm),Sample temperature (°C),Ambient temperature (°C),ASC tube jacket temperature (°C),LED temperature (°C),Box temperature (°C),Sample RH (%),Span deviation,Mass concentration (μg/m³),Mass concentration (μg/m³),Mass concentration (μg/m³)
DateTimeUTC,F1_M11,P_M11,Q1_M11,Q2_M11,T1_M11,T2_M11,T3_M11,T4_M11,T5_M11,U1_M11,ZSPAN_M11,X0_M11,X2_M11,X1_M11
2022-09-23 00:00:00,,0826.4,4.99,0.00,30.5,29.0,00.0,39.2,32.3,26.1,-002.5,0012.01,0008.70,0008.41
2022-09-23 00:01:00,,0826.4,5.00,0.00,30.5,29.0,00.0,39.2,32.3,26.2,-002.4,0011.87,0008.71,0008.43
2022-09-23 00:02:00,,0826.4,5.00,0.00,30.5,29.0,00.0,39.2,32.3,26.4,-002.6,0011.88,0008.71,0008.43
2022-09-23 00:03:00,,0826.4,4.99,0.00,30.5,29.0,00.0,39.2,32.3,27.1,-002.3,0011.89,0008.73,0008.45
2022-09-23 00:04:00,,0826.2,5.00,0.00,30.5,29.0,00.0,39.2,32.3,26.5,-002.1,0011.87,0008.74,0008.45
2022-09-23 00:05:00,,0826.2,5.00,0.00,30.5,29.0,00.0,39.2,32.3,26.2,-001.9,0011.59,0008.73,0008.46
2022-09-23 00:06:00,,0826.2,4.99,0.00,30.5,29.0,00.0,39.2,32.3,26.1,-001.9,0011.52,0008.78,0008.50
2022-09-23 00:07:00,,0826.2,5.02,0.00,30.5,29.0,00.0,39.2,32.3,26.1,-002.0,0011.68,0008.82,0008.54
2022-09-23 00:08:00,,0826.2,4.99,0.00,30.5,29.0,00.0,39.2,32.3,26.1,-001.8,0011.40,0008.81,0008.53
2022-09-23 00:09:00,,0826.2,5.00,0.00,30.5,29.0,00.0,39.2,32.3,26.2,-001.6,0011.33,0008.81,0008.54
2022-09-23 00:10:00,,0826.2,5.00,0.00,30.5,29.1,00.0,39.2,32.3,26.1,-001.5,0011.39,0008.85,0008.56
2022-09-23 00:11:00,,0826.3,4.99,0.00,30.5,29.1,00.0,39.2,32.3,26.1,-001.3,0011.44,0008.87,0008.58
2022-09-23 00:12:00,,0826.3,5.01,0.00,30.5,29.1,00.0,39.2,32.3,26.2,-001.6,0011.49,0008.89,0008.58
2022-09-23 00:13:00,,0826.3,5.00,0.00,30.5,29.1,00.0,39.2,32.3,26.1,-001.6,0011.53,0008.94,0008.61
2022-09-23 00:14:00,,0826.3,4.99,0.00,30.5,29.1,00.0,39.2,32.3,26.1,-001.8,0011.59,0008.98,0008.63
2022-09-23 00:15:00,,0826.4,5.01,0.00,30.5,29.1,00.0,39.2,32.3,26.1,-001.8,0011.73,0009.02,0008.66
2022-09-23 00:16:00,,0826.3,5.00,0.00,30.5,29.1,00.0,39.2,32.3,26.0,-002.2,0011.79,0009.03,0008.67
2022-09-23 00:17:00,,0826.3,5.00,0.00,30.5,29.1,00.0,39.3,32.3,26.1,-002.4,0011.71,0009.00,0008.65
2022-09-23 00:18:00,,0826.3,5.01,0.00,30.5,29.1,00.0,39.3,32.3,26.2,-002.5,0011.53,0008.94,0008.62
2022-09-23 00:19:00,,0826.4,4.98,0.00,30.5,29.1,00.0,39.3,32.3,26.1,-002.5,0011.40,0008.90,0008.59
2022-09-23 00:20:00,,0826.5,5.01,0.00,30.5,29.1,00.0,39.3,32.3,26.1,-002.6,0011.43,0008.89,0008.56
2022-09-23 00:21:00,,0826.5,4.99,0.00,30.5,29.1,00.0,39.3,32.4,26.1,-002.7,0011.50,0008.87,0008.54
2022-09-23 00:22:00,,0826.5,5.02,0.00,30.5,29.1,00.0,39.3,32.4,26.1,-002.6,0011.46,0008.83,0008.51
2022-09-23 00:23:00,,0826.4,4.99,0.00,30.5,29.1,00.0,39.3,32.4,26.2,-002.1,0011.39,0008.80,0008.50
2022-09-23 00:24:00,,0826.4,5.01,0.00,30.5,29.1,00.0,39.3,32.4,26.0,-002.1,0011.29,0008.74,0008.46
2022-09-23 00:25:00,,0826.5,5.00,0.00,30.5,29.1,00.0,39.3,32.4,26.0,-002.1,0011.17,0008.67,0008.41
2022-09-23 00:26:00,,0826.5,5.00,0.00,30.5,29.1,00.0,39.3,32.4,26.0,-002.3,0011.06,0008.62,0008.37
2022-09-23 00:27:00,,0826.5,5.01,0.00,30.5,29.1,00.0,39.3,32.4,26.0,-002.1,0010.97,0008.58,0008.35
2022-09-23 00:28:00,,0826.5,4.99,0.00,30.6,29.1,00.0,39.3,32.4,26.0,-002.1,0011.04,0008.57,0008.34
2022-09-23 00:29:00,,0826.5,5.01,0.00,30.6,29.1,00.0,39.3,32.4,26.0,-002.0,0011.17,0008.62,0008.37
2022-09-23 00:30:00,,0826.5,5.00,0.00,30.6,29.1,00.0,39.3,32.4,26.1,-001.9,0011.30,0008.65,0008.37
2022-09-23 00:31:00,,0826.5,4.99,0.00,30.6,29.1,00.0,39.3,32.4,26.1,-002.0,0011.50,0008.66,0008.38
2022-09-23 00:32:00,,0826.5,5.01,0.00,30.6,29.1,00.0,39.3,32.4,26.2,-002.0,0011.92,0008.63,0008.37
2022-09-23 00:33:00,,0826.5,5.00,0.00,30.6,29.1,00.0,39.3,32.4,26.1,-002.1,0012.12,0008.63,0008.37
2022-09-23 00:34:00,,0826.5,5.01,0.00,30.6,29.1,00.0,39.3,32.4,26.0,-002.5,0012.15,0008.64,0008.38
2022-09-23 00:35:00,,0826.6,4.99,0.00,30.6,29.1,00.0,39.3,32.4,26.1,-002.7,0012.29,0008.68,0008.39
2022-09-23 00:36:00,,0826.7,5.01,0.00,30.6,29.1,00.0,39.3,32.4,26.2,-002.8,0012.32,0008.67,0008.38
2022-09-23 00:37:00,,0826.6,5.01,0.00,30.6,29.1,00.0,39.3,32.4,26.3,-003.0,0012.84,0008.67,0008.38
2022-09-23 00:38:00,,0826.5,4.99,0.00,30.6,29.1,00.0,39.3,32.4,26.2,-003.0,0013.02,0008.66,0008.36
2022-09-23 00:39:00,,0826.5,5.01,0.00,30.6,29.1,00.0,39.3,32.4,26.3,-003.0,0012.91,0008.63,0008.33
2022-09-23 00:40:00,,0826.5,5.00,0.00,30.6,29.1,00.0,39.3,32.4,26.2,-002.9,0012.77,0008.56,0008.28
2022-09-23 00:41:00,,0826.5,5.00,0.00,30.6,29.1,00.0,39.3,32.4,26.3,-003.0,0012.64,0008.51,0008.25
2022-09-23 00:42:00,,0826.5,5.00,0.00,30.6,29.1,00.0,39.3,32.4,26.4,-003.0,0012.68,0008.45,0008.19
2022-09-23 00:43:00,,0826.5,5.00,0.00,30.6,29.1,00.0,39.3,32.4,26.2,-003.0,0012.44,0008.45,0008.17
2022-09-23 00:44:00,,0826.5,4.99,0.00,30.6,29.1,00.0,39.3,32.4,26.2,-002.8,0012.49,0008.42,0008.12
2022-09-23 00:45:00,,0826.5,5.01,0.00,30.6,29.1,00.0,39.3,32.4,26.2,-002.7,0012.47,0008.39,0008.08
2022-09-23 00:46:00,,0826.5,5.00,0.00,30.6,29.1,00.0,39.3,32.4,26.3,-002.4,0012.37,0008.33,0008.02
2022-09-23 00:47:00,,0826.5,4.99,0.00,30.6,29.1,00.0,39.3,32.4,26.2,-002.0,0013.06,0008.33,0007.99
2022-09-23 00:48:00,,0826.5,5.00,0.00,30.6,29.1,00.0,39.3,32.4,26.2,-001.7,0012.88,0008.31,0007.96
2022-09-23 00:49:00,,0826.5,5.00,0.00,30.6,29.1,00.0,39.3,32.4,26.2,-001.7,0012.78,0008.30,0007.93
2022-09-23 00:50:00,,0826.5,4.99,0.00,30.6,29.1,00.0,39.3,32.4,26.3,-001.8,0012.88,0008.30,0007.88
2022-09-23 00:51:00,,0826.5,5.01,0.00,30.6,29.2,00.0,39.3,32.4,26.2,-002.1,0012.91,0008.30,0007.85
2022-09-23 00:52:00,,0826.5,4.99,0.00,30.6,29.2,00.0,39.3,32.4,26.2,-002.4,0013.22,0008.30,0007.83
2022-09-23 00:53:00,,0826.5,5.00,0.00,30.6,29.1,00.0,39.3,32.4,26.5,-002.3,0013.03,0008.27,0007.82
2022-09-23 00:54:00,,0826.5,5.01,0.00,30.6,29.1,00.0,39.3,32.4,27.2,-002.3,0012.74,0008.24,0007.79
2022-09-23 00:55:00,,0826.5,4.99,0.00,30.6,29.1,00.0,39.4,32.4,26.7,-002.3,0012.42,0008.18,0007.74
2022-09-23 00:56:00,,0826.4,5.01,0.00,30.6,29.1,00.0,39.3,32.4,26.4,-002.3,0012.47,0008.16,0007.68
2022-09-23 00:57:00,,0826.5,5.00,0.00,30.6,29.1,00.0,39.3,32.4,26.3,-002.0,0012.42,0008.13,0007.66
2022-09-23 00:58:00,,0826.5,5.00,0.00,30.6,29.1,00.0,39.4,32.4,26.2,-001.9,0012.00,0008.11,0007.64
2022-09-23 00:59:00,,0826.5,5.01,0.00,30.6,29.1,00.0,39.4,32.4,26.0,-001.9,0011.71,0008.08,0007.61
